CAPE
1475 1473 1186 1544 1642 1558 1479 1433 1436 1474 1446 1386 1554 1528 1495 1495 1550 1606 1513 1528 1611 1642 1604 2038 1977 1958 1866 1804 1897 1836 1755 1719 1672 1641 1644 1651 1723 1665 1659 1606 1521 1494 1430 1444 1323 1126 897 947 810 738 769 650 675 504 326 205 181 139 28 66 261 334 362 390 383 341 290 243 274 316 359 548 880 956 883 888 658 432 334 243 393 314 134 86 104
1211 1287 1213 1439 1692 1576 1465 1413 1346 1374 1458 1385 1527 1545 1487 1458 1462 1438 1542 1613 1644 1719 2027 2023 1927 1855 1859 1867 1880 1808 1784 1694 1641 1530 1558 1457 1695 1709 1685 1582 1530 1420 1350 1268 1180 1032 949 903 787 695 538 520 483 459 405 244 60 1 1 13 86 217 265 246 348 375 279 311 305 267 381 490 601 761 892 732 656 560 488 401 366 290 299 255 188
1092 1026 1119 1174 1425 1472 1402 1286 1287 1364 1351 1419 1421 1457 1415 1445 1532 1575 1647 1598 2089 2103 2060 1983 1890 1912 1890 1871 1851 1867 1852 1792 1737 1640 1537 1585 1684 1636 1622 1565 1533 1368 1336 1191 1105 987 920 955 878 745 490 293 207 164 118 78 113 116 100 81 48 62 118 234 401 195 299 420 427 415 428 436 470 627 659 560 441 369 330 368 314 320 263 351 248
1161 998 954 1103 1253 1397 1372 1278 1251 946 1156 1144 1402 1390 1408 1481 1595 1594 1620 2023 2048 2046 1944 1921 1903 1863 1851 1928 1878 1907 1951 1858 1715 1600 1627 1642 1378 1456 1577 1353 1404 1434 1301 1196 1130 1113 1087 1023 978 772 589 437 219 139 104 109 144 106 91 131 191 144 323 494 286 244 452 316 299 234 244 80 234 313 361 335 295 274 227 208 191 256 156 147 188
1362 863 858 891 1110 1268 1352 1251 1359 1166 1046 1102 1329 1361 1380 1571 1575 1592 1726 1835 1965 1957 1870 1864 1906 1937 1908 1854 1868 1911 1823 1824 1759 1733 1646 1612 1516 1527 1548 1578 1274 1426 1303 1244 1190 1150 1077 1068 963 852 709 704 457 204 131 97 67 62 71 89 135 297 393 371 561 386 513 262 235 137 38 50 86 288 278 191 180 208 213 229 201 230 137 127 158
1418 662 740 1012 1041 1186 1262 1226 1206 1163 1179 1130 1310 1348 1506 1590 1581 1610 1744 1740 1833 1891 1857 1889 1874 1912 1915 1898 1910 1854 1871 1890 1829 1753 1644 1550 1626 1450 1571 1514 1456 1421 1336 1428 1384 1322 1222 1140 1088 965 947 783 451 273 154 76 64 18 24 67 142 166 316 250 443 730 722 732 1073 734 40 53 94 182 365 274 159 229 304 292 226 228 124 65 109
1533 1061 661 926 1029 1156 1325 1263 1234 1244 1259 1262 1244 1321 1556 1607 1634 1724 1709 1781 1851 1958 1917 1928 1922 1912 1927 1903 1864 1840 1878 1850 1737 1751 1637 1548 1526 1493 1324 1550 1418 1331 1303 1330 1274 1331 1168 1162 1104 984 1024 781 401 237 135 117 156 55 13 57 43 136 80 176 135 389 366 612 840 415 48 85 186 389 668 718 809 548 452 503 433 287 255 170 136
1518 983 686 872 1015 1100 1252 1308 1224 1230 1224 1282 1322 1393 1553 1649 1694 1786 1784 1877 1879 1967 2022 1928 1946 1962 1980 1939 1890 1838 1790 1843 1786 1757 1642 1564 1574 1575 1565 1500 1381 1344 1363 1314 1111 1129 1090 1130 1073 1173 1095 909 536 407 242 153 119 106 101 166 184 104 268 266 493 486 477 737 347 330 23 165 185 310 591 650 723 650 515 438 350 224 220 194 210
1544 766 741 876 1044 1205 1328 1300 1189 1254 1290 1374 1453 1535 1614 1723 1851 1886 1920 1977 2027 1969 2015 2006 1926 1871 1911 1863 1814 1786 1778 1748 1731 1722 1691 1589 1552 1594 1556 1564 1499 1416 1373 1261 1209 1090 846 796 825 780 872 885 638 435 443 459 287 307 311 314 391 631 684 845 1095 1059 1193 915 827 164 97 133 363 556 642 574 491 520 292 219 402 292 270 188 146
1529 914 754 880 1025 1197 1340 1422 1320 1336 1407 1498 1627 1684 1821 1923 1971 2023 2013 2030 2002 2060 2011 1938 1969 1947 1859 1797 1844 1773 1748 1738 1746 1731 1632 1589 1511 1499 1469 1396 1404 1334 1248 1136 1026 1066 980 1062 1100 1061 922 945 709 614 521 471 590 528 485 447 536 559 788 859 1040 1070 884 718 122 43 247 396 307 372 546 432 444 404 353 348 614 294 291 212 198
1465 930 775 826 924 1383 1376 1452 1454 1445 1644 1707 1744 1837 1908 2055 2068 2026 1997 2018 2039 1999 1937 1938 1913 1853 1766 1731 1731 1735 1701 1651 1608 1550 1538 1565 1503 1459 1458 1380 1299 1296 1240 1168 1031 866 956 1184 1238 1303 1270 856 822 871 528 840 590 889 942 823 734 832 955 957 966 523 495 490 486 709 919 701 162 198 520 494 347 358 412 263 190 237 241 198 184
776 550 705 850 1075 1420 1471 1540 1560 1752 1782 1846 1914 2049 2062 1975 1995 2056 2033 2054 1999 1998 1980 1904 1863 1786 1791 1760 1703 1701 1633 1540 1452 1298 1224 1190 1282 1198 1085 1135 1044 1108 1171 1194 946 912 1232 1234 1351 1426 1376 1414 1033 864 779 938 820 960 971 1146 1030 982 1098 1060 935 397 351 139 343 249 217 116 145 295 384 478 313 389 393 298 231 250 209 177 180
567 690 820 995 1150 1488 1573 1651 1795 1964 1886 2043 2110 2026 1984 2098 2126 2087 2064 2065 1960 1948 1925 1810 1804 1764 1676 1655 1569 1546 1514 1432 1343 1283 1217 1169 1129 1047 957 878 848 870 850 937 890 984 1140 1253 1370 1402 1460 1421 1347 1125 1042 987 1001 971 1182 1186 1262 1224 1241 1187 675 464 483 308 130 372 234 72 313 707 621 499 391 252 239 264 207 202 210 185 182
631 735 889 993 1120 1336 1659 1756 1982 2024 2031 2164 2104 2075 2187 2093 2112 2048 1981 2031 1936 1891 1908 1813 1764 1720 1609 1613 1579 1467 1306 1240 1110 1102 1126 971 875 776 738 698 652 600 626 635 724 745 923 1073 1192 1406 1450 1483 1485 1321 1134 1165 1156 1205 1211 1285 1410 1424 1297 1002 736 382 656 274 270 420 543 255 356 560 558 538 388 414 298 233 268 219 177 152 93
577 677 829 884 950 1184 1538 1746 1913 2052 2051 2086 2132 2274 2219 2093 2034 1986 1956 1854 1839 1859 1842 1746 1696 1590 1599 1455 1338 1178 1084 1001 965 894 807 768 685 642 611 584 475 456 502 486 552 538 693 890 1023 1194 1182 1364 1417 1381 1236 1342 1334 1378 1467 1490 1592 1524 1386 1027 877 750 816 412 319 133 171 118 649 653 584 499 370 312 334 286 270 250 86 41 27
922 772 693 737 864 1086 1433 1576 1760 1911 2007 2124 2226 2246 2113 2016 1946 1940 1939 1938 1909 1868 1756 1633 1537 1552 1505 1479 1341 1212 1100 1029 948 892 853 882 817 713 597 496 446 392 430 437 378 378 497 703 828 1015 1139 1352 1165 1292 1341 1381 1409 1486 1549 1653 1560 1513 1480 1379 1219 962 839 339 269 473 571 315 686 494 503 486 399 392 297 206 251 248 181 18 17
772 680 652 739 784 876 1071 1650 1887 2023 2085 2123 2212 2054 2014 1971 1952 1932 1911 1783 1793 1721 1691 1537 1557 1508 1446 1394 1340 1226 1193 1088 1071 1007 931 870 758 704 696 649 460 378 194 359 380 348 385 479 540 774 1038 1245 1329 1356 1149 1351 1518 1480 1602 1645 1640 1522 1559 1730 1378 921 657 430 344 381 314 467 643 641 514 294 336 409 370 303 222 131 180 42 34
646 432 547 676 674 825 1328 1501 1472 1690 1755 2021 2099 1930 1928 1893 1944 1913 1880 1799 1806 1658 1572 1513 1517 1500 1509 1410 1324 1264 1196 1151 1102 1044 940 839 722 591 559 619 583 438 292 133 176 436 264 294 715 678 828 950 1207 1376 1470 1500 1426 1567 1554 1586 1668 1718 1720 1956 1014 682 560 904 546 489 460 612 670 571 544 295 245 348 184 327 304 230 224 82 79
443 453 517 558 627 883 1154 1304 1387 1479 1610 1681 1784 1873 1860 1942 1859 1838 1806 1824 1648 1601 1650 1636 1538 1550 1509 1466 1411 1382 1265 1199 1042 860 899 720 624 696 706 725 663 642 548 360 186 48 202 385 484 752 858 888 832 1296 1469 1539 1650 1591 1581 1719 1715 1769 1760 1114 524 758 782 754 480 404 510 734 663 509 328 370 283 358 104 233 397 320 177 98 67
564 475 473 460 630 828 1026 1102 1255 1407 1441 1563 1655 1655 1750 1806 1815 1824 1795 1773 1538 1610 1623 1621 1620 1570 1638 1608 1550 1374 1208 1063 1042 941 811 878 874 886 806 628 677 770 769 591 602 314 290 222 585 664 706 794 1132 1232 1484 1584 1575 1678 1700 1619 1714 1572 805 400 570 866 601 621 715 517 639 909 539 478 550 438 461 430 240 372 392 280 191 129 60
707 583 533 511 551 647 749 847 1014 1225 1388 1502 1578 1628 1791 1828 1818 1844 1915 1846 1660 1602 1683 1777 1741 1655 1645 1571 1396 1188 1146 1188 1107 962 1163 1123 856 785 719 660 601 811 870 770 401 267 144 304 344 598 660 573 844 1214 1450 1474 1643 1702 1729 1624 1579 1006 696 712 870 1126 368 695 343 137 1198 764 663 776 712 580 476 400 428 422 392 281 195 98 87
784 752 686 627 467 557 654 606 784 1044 1312 1448 1531 1594 1806 1759 1643 1698 1934 1717 1688 1749 1744 1626 2002 1584 1709 1646 1226 1340 1056 1159 1149 1478 1353 1002 854 921 827 784 750 827 817 1030 978 693 424 460 488 342 542 752 896 797 1141 1794 1860 1772 1839 1705 1319 757 847 950 1034 1129 336 107 143 602 1238 942 867 867 785 577 406 302 430 526 372 341 224 144 102
873 896 816 797 573 654 513 465 671 917 1112 1295 1452 1553 1627 1649 1614 1659 1837 1935 1804 1914 1485 1839 1723 1391 1602 1501 1610 1446 1406 1160 1559 1511 1111 1057 1039 985 897 900 899 1041 1085 1154 1147 1195 894 426 257 469 587 834 725 293 636 1087 1256 2066 2127 1903 1018 472 602 926 1115 1192 132 157 204 1105 1307 1167 1145 1002 1050 656 502 349 497 573 490 304 225 186 92
1216 1064 914 972 1021 811 714 773 471 729 900 1039 1288 1421 1431 1529 1514 1665 1699 1724 1786 1664 1388 1762 1639 1415 1578 1440 1585 1524 1251 1265 1820 1602 2070 1450 1137 1164 1066 1110 1123 1244 1160 1236 1250 1279 1379 1058 752 801 790 282 0 586 1062 1390 1402 1120 1113 944 725 727 817 946 1182 1290 660 748 59 1836 1453 1499 1150 1316 1228 947 816 630 551 646 593 400 272 215 185
1247 1400 1421 1390 1268 1183 1049 681 560 437 507 672 1006 1250 1375 1361 1490 1662 1656 1707 1730 1593 1584 1518 1467 1425 1304 1500 1411 1580 1482 1356 1155 1210 1073 1095 1145 911 1175 1144 1094 1014 1169 1088 932 615 662 582 518 298 4 0 0 0 131 692 1122 1321 1080 1107 978 885 871 1004 1226 1217 754 670 493 1694 1826 1566 1552 1467 1394 1329 1134 950 785 636 565 527 383 245 212
1342 1420 1432 1425 1049 1125 912 770 588 328 106 170 713 1033 1236 1276 1459 1566 1552 1663 1696 1671 1549 1481 1248 1215 1418 1842 1525 1327 1406 937 930 835 731 1160 1040 1185 1222 1296 1261 1569 1317 986 741 702 811 965 795 336 0 0 0 0 2 168 880 1370 1224 1257 1122 1130 1147 1160 1161 813 396 147 386 1852 1584 1754 1533 1736 1690 1484 1371 1183 994 840 801 714 490 275 253
1228 1195 1273 1304 1032 1099 844 804 724 358 135 177 569 850 986 1204 1302 1314 1316 1378 1540 1513 1187 1048 1135 1346 1350 1900 1663 1320 1107 1405 1115 913 818 950 1198 919 1277 1682 1440 1604 1225 427 638 716 750 822 676 249 0 0 0 0 0 0 170 999 1274 1286 1192 1151 1190 660 258 144 305 385 395 2326 1690 1598 1731 2047 1828 1806 1660 1402 1170 1076 955 844 616 611 527
1277 1116 1132 1159 1062 835 788 885 921 278 202 269 560 531 557 660 824 1171 1429 1081 1174 1184 872 1133 1326 1528 1777 2076 2220 1831 1592 1450 1286 1100 932 1268 1185 1176 1521 1611 1591 1296 1007 955 1001 1120 1136 1180 890 680 20 193 1 17 15 6 111 520 918 843 501 457 376 173 201 243 454 335 555 1910 1756 1757 1398 1946 2022 1961 1882 1762 1554 1363 1144 992 856 617 718
1173 945 1140 998 846 737 693 972 842 336 190 75 54 519 525 313 838 652 696 2028 1250 1222 1157 1160 1182 1325 1763 2150 2143 1369 1409 1600 1584 1283 1140 1407 1549 1635 1334 1145 1186 1620 1334 804 1200 1295 1654 1250 1212 1088 841 906 935 928 904 701 130 144 245 361 489 406 384 408 331 410 726 696 868 1298 1973 1616 1419 1534 2209 2115 1999 1971 1791 1670 1527 1297 1092 868 769
1038 816 1002 892 816 742 730 530 397 229 74 274 405 497 445 529 662 862 1184 1831 1446 1335 1145 1090 1169 1224 1370 1259 1982 1744 1636 1449 1731 1384 1232 950 1374 1235 1229 780 882 1260 1250 1123 1290 1400 1311 1270 1053 1025 1127 1319 1449 1430 1396 1299 1113 941 411 383 347 414 368 306 326 546 762 670 522 1607 1968 1772 1430 1414 1595 2061 2022 1865 1884 1908 1832 1629 1413 1225 1119
1162 1005 978 907 710 785 544 500 312 305 392 814 713 599 425 403 433 632 993 1144 1101 1258 1489 1541 1632 1430 1357 1884 1992 2289 1566 1526 1742 1487 1084 972 1177 717 787 776 1164 1041 1042 879 982 1078 1027 1076 1272 1426 1698 1892 1481 1187 1277 1303 1228 1132 1101 1044 836 676 668 663 473 546 548 694 739 1084 1950 2013 1480 1494 1481 1468 1895 1947 1948 1844 1861 1847 1690 1551 1318
866 1046 886 869 842 753 632 588 338 280 158 531 375 368 386 504 599 431 748 882 1007 893 1172 1276 1588 1525 1481 1534 2184 2099 1754 1732 2086 1521 1066 1092 832 733 959 959 882 814 740 766 995 1065 955 1154 1181 1529 1658 1622 1245 1122 1068 1245 1265 1198 1136 1166 1075 965 948 980 976 933 975 1108 1192 1177 1265 1527 1629 1656 1743 1498 1411 1812 1997 1703 1638 1817 1862 1792 1390
510 433 656 874 784 605 615 384 66 232 348 472 433 458 550 589 536 570 619 702 945 851 1163 1395 1551 1804 1645 1873 2173 1740 1627 1536 1491 1596 1396 1025 948 781 647 827 826 648 840 835 933 787 814 881 1035 1229 1364 1400 1322 1279 1286 1377 1417 1316 1297 1263 1135 1123 1234 1317 1362 1430 1413 1446 1484 1494 1533 1484 1325 1551 1661 1790 1610 1516 1860 1853 1694 1658 1782 1803 1417
702 911 916 711 609 705 592 452 213 349 389 507 541 635 657 648 567 802 856 774 723 674 821 935 1295 1519 1510 1706 1951 1923 2012 1775 1800 1446 1062 922 840 774 637 614 691 837 1031 1090 1078 1005 991 1117 1304 1304 1494 1062 1141 1170 1152 1099 1134 1188 1240 1259 1248 1297 1382 1493 1552 1561 1508 1551 1649 1700 1632 1512 1422 1321 1280 1718 1787 1596 1558 1547 1587 1533 1586 1801 1878
844 937 772 400 567 618 579 449 392 443 515 562 645 801 917 558 714 853 750 688 650 850 852 983 1041 1128 981 1624 1625 1734 1485 1475 1565 1315 1147 1160 926 839 738 815 968 909 999 1237 1204 1070 1052 1007 1272 1283 1074 1053 1093 1122 1118 956 924 1186 1217 1236 1268 1359 1408 1441 1393 1329 1363 1498 1811 1765 1633 1564 1558 1496 1366 1228 1328 1803 1611 1436 1544 1505 1482 1590 1784
720 624 554 538 536 585 546 484 514 573 614 607 740 840 784 548 574 764 860 661 672 635 918 1002 1050 1023 700 1215 1444 1468 1405 1560 1626 1288 1204 1309 1043 1024 1155 1006 1206 1142 1304 1364 1044 975 1070 1034 1061 1112 1149 985 975 1010 994 936 924 1009 1064 1135 1168 1173 1247 1244 1259 1294 1403 1491 1720 1730 1673 1686 1719 1635 1507 1371 1394 1381 1418 1502 1360 1252 1398 1418 1510
464 547 660 574 559 587 516 475 588 572 666 630 668 798 716 694 780 872 797 698 510 833 810 867 1063 1012 739 1118 952 1286 1336 1472 1467 1556 1271 1281 1319 1415 1382 1482 1557 1608 1534 1600 1054 982 830 769 560 593 702 814 820 772 709 583 638 694 658 737 790 850 950 1038 1137 1280 1346 1430 1469 1635 1772 1876 1860 1798 1571 1510 1529 1449 1385 1479 1572 1382 1128 1196 1378
733 724 681 688 649 687 637 653 735 741 853 740 758 683 541 601 767 866 655 567 560 588 668 709 724 606 730 742 986 1386 1098 1045 1051 1025 972 1145 864 715 692 832 1252 801 611 585 529 531 445 388 468 494 436 398 481 556 408 390 388 367 488 542 628 713 838 966 1047 1094 1237 1325 1426 1441 1564 1659 1781 1725 1636 1616 1606 1594 1612 1598 1563 1644 1611 1363 1132
886 819 778 831 826 776 746 905 907 859 799 734 741 668 613 729 635 576 664 707 657 706 655 553 477 641 492 667 833 888 1010 978 925 917 913 850 780 674 617 508 498 562 577 569 602 487 384 309 375 346 361 404 393 302 300 327 318 299 367 392 340 533 674 868 1056 1194 1272 1365 1469 1671 1714 1684 1615 1663 1707 1693 1743 1762 1854 1867 1770 1529 1321 1258 1387
943 966 874 816 792 816 850 811 870 904 770 682 699 670 688 687 733 633 603 539 524 490 500 556 520 501 781 767 756 781 839 832 874 898 812 683 702 678 617 559 464 460 474 462 381 384 276 50 287 304 231 318 337 270 189 71 120 152 92 95 329 468 542 1114 1062 1153 1146 977 1065 1501 1476 1655 1653 1644 1594 1755 1899 2047 2110 2053 1806 1575 1430 1274 1209
854 906 857 816 853 879 847 882 861 770 670 632 672 702 733 650 478 528 520 436 420 391 441 497 543 663 728 696 718 697 628 651 676 765 684 740 546 468 532 533 391 404 342 267 244 272 264 220 211 228 135 125 130 0 0 12 8 0 2 68 154 155 905 1093 1275 1104 865 651 572 780 1360 1191 1364 1218 1062 1167 1677 1968 2097 2016 1844 1667 1519 1329 1245
826 829 878 898 866 780 784 834 867 762 627 635 695 694 643 568 450 427 513 557 543 548 551 570 595 656 685 701 656 581 549 504 492 502 507 526 426 387 430 434 360 298 277 254 223 225 177 110 35 38 0 0 0 0 0 0 0 0 4 58 20 13 969 1243 931 762 570 514 596 503 459 680 609 893 804 898 1015 1303 1669 1748 1803 1712 1510 1478 1345
836 869 930 839 758 766 800 819 755 746 626 546 579 531 521 540 567 515 611 635 546 576 664 603 564 564 515 312 218 376 416 347 193 347 382 404 377 328 332 284 185 81 0 0 0 0 0 0 0 0 0 0 0 0 0 0 0 0 5 24 8 56 19 519 836 749 621 0 289 496 402 434 437 488 464 465 489 481 708 914 1259 1333 1448 1447 1373
810 825 876 860 792 787 778 713 716 726 547 579 541 437 437 457 547 545 420 415 419 444 473 497 524 487 410 66 0 0 0 0 19 0 263 339 319 139 0 0 0 0 0 0 0 0 0 0 0 0 0 0 0 0 0 0 0 0 0 0 5 12 0 0 0 0 0 0 0 363 399 17 19 294 478 505 526 516 463 378 315 309 421 958 1195
754 807 872 872 803 790 695 602 637 592 545 586 563 526 523 574 558 516 503 397 343 296 265 156 148 0 0 0 0 0 0 0 0 0 0 0 0 0 0 0 0 0 0 0 0 0 0 0 0 0 0 0 0 0 0 0 0 0 0 0 0 2 5 0 0 0 0 0 0 0 0 0 0 0 0 0 390 522 505 348 272 250 247 221 1064
789 888 882 793 802 813 719 668 689 733 777 714 652 592 613 564 478 456 455 395 265 197 199 148 0 0 0 0 0 0 0 0 0 0 0 0 0 0 0 0 0 0 0 0 0 0 0 0 0 0 0 0 0 0 0 0 0 0 0 0 7 9 2 0 0 0 0 0 0 0 0 0 0 0 0 0 0 0 0 0 0 0 0 3 38
950 914 826 717 798 886 793 696 780 839 768 727 668 614 480 382 453 471 438 366 292 266 232 122 0 0 0 0 0 0 0 0 0 0 0 0 0 0 0 0 0 0 0 0 0 0 0 0 0 0 0 0 0 0 0 0 0 0 0 0 0 0 0 0 0 0 0 0 0 0 0 0 0 0 0 0 0 0 0 0 0 0 9 0 0
906 841 822 765 765 826 779 674 614 588 575 471 382 320 428 420 364 384 382 333 289 254 222 103 0 0 0 0 0 0 0 0 0 0 0 0 0 0 0 0 0 0 0 0 0 0 0 0 0 0 0 0 0 0 0 0 0 0 0 0 0 0 0 0 0 0 0 0 0 0 0 0 0 0 0 0 0 0 0 0 0 0 8 61 4
807 834 824 719 717 721 682 628 576 557 554 572 529 540 558 488 485 458 384 372 308 227 64 0 0 0 0 0 0 0 0 0 0 0 0 0 0 0 0 0 0 0 0 0 0 0 0 0 0 0 0 0 0 0 0 0 0 0 0 0 0 0 0 0 0 0 0 0 0 0 0 0 0 0 0 0 0 0 0 0 0 0 0 23 3
744 790 708 704 749 672 586 558 541 508 506 477 441 441 430 467 564 545 498 431 379 299 104 0 0 0 0 0 0 0 0 0 0 0 0 0 0 0 0 0 0 0 0 0 0 0 0 0 0 0 0 0 0 0 0 0 0 0 0 0 0 0 0 0 0 0 3 2 0 0 0 0 0 0 0 0 0 0 0 0 0 0 0 0 0
795 746 650 640 615 596 555 499 440 402 421 444 443 400 304 272 233 240 199 46 38 0 0 0 0 0 0 0 0 0 0 0 0 0 0 0 0 0 0 0 0 0 0 0 0 0 0 0 0 0 0 0 0 0 0 0 0 0 0 0 0 0 0 0 0 0 1 1 0 0 0 0 0 0 0 0 0 0 0 0 0 0 0 0 0
Wind_Speed
28 33 33 36 38 40 40 37 35 34 33 34 33 33 32 29 26 24 23 23 22 21 20 20 22 22 22 21 21 21 20 20 20 18 18 17 15 13 12 12 13 12 13 13 12 12 12 12 12 13 12 12 11 11 11 11 11 11 nan nan 13 14 15 15 16 17 17 15 14 15 14 14 13 13 14 16 17 17 17 17 14 9 7 nan 16
34 32 32 35 40 41 42 39 36 34 33 33 33 33 32 28 26 25 24 23 22 22 20 20 21 23 22 22 22 21 20 20 20 19 18 17 15 14 12 12 12 12 12 12 13 13 13 14 14 14 13 12 11 11 11 11 nan nan nan nan nan 14 14 15 17 17 17 16 16 15 14 14 14 13 14 15 16 17 17 17 17 10 9 16 17
34 33 34 38 44 44 42 39 37 34 32 32 33 33 31 28 26 25 24 23 22 21 21 20 21 22 23 22 22 21 19 20 21 19 18 17 15 14 13 12 12 12 13 13 14 14 15 14 14 14 13 12 12 11 12 nan 13 12 12 nan nan nan 13 14 16 17 19 18 18 16 14 13 13 13 14 15 16 17 17 17 17 16 13 18 17
37 33 34 39 45 42 41 40 36 34 32 32 32 32 31 29 27 25 24 23 22 22 21 21 21 22 22 22 21 21 20 19 20 19 17 16 15 15 13 12 12 12 14 15 15 15 15 14 14 13 12 11 11 11 11 12 13 12 nan 11 11 12 12 14 15 17 18 19 18 13 9 nan 9 13 14 15 16 16 16 17 18 18 18 16 18
38 36 36 37 38 41 42 41 35 33 32 32 31 31 31 29 27 25 24 23 22 21 21 21 21 22 22 22 21 21 21 20 19 19 18 17 16 15 14 14 13 13 14 14 15 15 15 15 14 13 11 11 10 11 11 nan nan nan nan nan 10 10 10 12 14 16 18 19 18 11 nan nan nan 14 15 16 16 16 17 18 18 18 19 18 18
38 36 36 37 38 39 43 41 37 34 31 32 31 31 30 29 27 25 23 24 22 21 22 21 21 22 23 22 22 21 21 20 19 19 17 16 14 15 14 13 13 13 13 13 14 14 14 14 13 12 11 10 10 10 10 nan nan nan nan nan 10 10 10 10 10 13 15 14 9 10 nan nan nan 12 17 17 17 17 18 18 17 18 19 nan 19
39 37 38 38 37 39 41 40 38 33 31 31 31 30 30 29 27 24 23 23 22 22 22 22 22 22 23 23 22 22 21 21 21 19 18 17 16 15 14 14 13 13 13 13 14 14 13 12 11 10 11 10 10 9 9 9 9 nan nan nan nan 8 nan 9 10 12 12 12 10 11 nan nan 12 11 16 16 18 19 19 19 18 19 20 19 19
36 37 39 39 39 41 42 39 37 33 32 31 30 30 29 29 27 24 22 22 21 22 22 22 22 22 23 22 22 22 23 23 22 21 19 17 16 15 14 14 13 12 12 12 12 12 12 10 10 10 11 12 10 9 8 8 7 7 7 6 6 6 6 6 8 8 11 12 14 13 nan 14 13 11 15 17 19 21 21 19 19 19 19 19 20
38 39 39 40 40 46 42 38 36 33 31 31 31 30 29 28 26 24 22 21 21 22 22 22 23 23 23 22 22 23 24 24 23 22 20 19 18 17 15 14 13 12 11 11 11 10 9 8 8 8 10 11 11 9 7 6 5 5 4 4 5 5 5 6 7 9 10 12 13 15 nan 15 13 13 15 17 17 18 19 18 17 20 21 20 20
39 39 39 40 41 45 41 36 35 32 32 31 30 29 28 26 24 23 22 21 22 21 22 23 23 23 23 23 22 23 24 25 24 23 22 21 19 18 16 14 13 13 12 11 11 10 9 7 7 7 9 10 11 9 7 5 4 4 4 4 4 4 4 6 7 8 10 10 13 nan 16 17 13 13 15 16 17 17 18 20 19 19 18 20 21
40 39 39 42 44 43 39 36 33 32 31 30 29 28 27 25 24 22 21 21 22 21 22 23 24 24 24 23 23 24 25 25 25 24 23 22 21 19 17 15 14 12 11 10 10 10 9 8 7 7 9 11 10 9 7 6 5 4 3 3 3 3 4 5 6 7 8 8 13 13 16 19 13 13 16 17 16 16 17 18 17 18 20 19 19
41 40 39 40 46 41 38 35 32 31 30 28 28 27 26 25 24 22 21 21 22 23 23 23 23 24 24 24 24 25 26 25 24 24 23 22 21 19 17 15 14 13 12 11 10 10 9 8 8 8 9 10 11 10 8 8 6 4 3 2 2 3 4 5 5 6 6 11 15 15 15 14 13 15 18 16 16 16 17 16 16 17 18 17 19
42 41 40 39 38 38 35 33 32 30 30 29 27 26 25 24 23 22 22 20 22 23 24 24 24 23 23 24 24 25 26 25 25 25 24 22 21 20 18 16 14 13 12 11 11 11 10 9 9 8 7 7 8 10 9 9 7 6 4 3 3 3 3 4 6 7 6 9 13 14 15 nan 13 18 17 17 16 15 15 15 15 15 16 17 17
43 41 40 39 35 39 35 32 30 30 30 28 26 23 23 23 23 23 23 21 22 24 22 23 23 23 23 23 24 25 26 25 25 25 24 22 21 19 18 16 14 13 12 11 11 11 10 9 8 8 6 5 6 8 10 9 8 7 5 5 5 4 3 4 5 5 3 12 12 15 13 13 13 17 17 17 16 15 14 15 15 16 15 15 nan
46 43 41 38 35 33 36 30 29 29 28 26 23 22 24 24 24 23 22 24 24 23 23 24 23 23 24 24 25 25 26 25 25 25 25 23 21 19 18 16 14 13 12 11 10 10 9 9 8 6 5 5 6 8 8 9 9 8 7 7 6 6 5 7 6 5 4 9 13 15 14 14 16 16 17 16 16 15 16 15 16 17 nan nan nan
48 45 42 37 33 30 29 31 29 29 26 24 22 23 25 25 25 24 22 22 22 22 23 23 23 22 23 23 25 26 26 27 27 27 26 25 22 20 17 16 15 13 12 11 10 9 9 8 7 5 4 5 6 8 10 10 9 9 8 8 6 6 6 6 9 7 8 11 12 14 14 14 18 17 18 18 17 16 15 16 16 16 15 nan nan
45 44 42 36 32 28 26 25 26 30 26 22 22 25 25 25 24 24 22 23 23 23 23 23 23 22 22 23 24 25 26 27 28 27 26 25 23 20 17 15 15 13 12 11 10 9 7 7 6 5 5 6 7 8 11 11 9 9 9 8 7 7 8 7 7 6 7 12 14 14 14 14 18 18 18 18 17 17 17 16 15 15 16 nan nan
44 42 38 34 30 27 25 25 24 22 18 20 22 25 26 25 23 22 22 22 22 22 22 22 22 22 21 22 23 24 25 27 27 26 25 24 22 20 16 14 14 14 13 10 10 9 8 6 6 5 6 7 7 10 11 11 10 10 10 9 10 10 9 7 9 9 10 16 15 16 16 16 19 19 19 18 17 17 16 16 15 15 16 nan nan
40 36 34 31 29 26 24 23 22 19 16 15 15 21 26 25 23 23 22 21 21 21 22 21 21 21 21 22 24 25 26 27 27 26 25 23 21 18 15 12 12 13 12 11 10 nan 8 7 6 6 8 8 10 11 12 12 11 11 11 10 10 9 9 6 7 7 10 16 16 17 17 21 20 21 20 20 19 18 16 16 17 17 16 nan nan
34 32 29 28 27 25 23 21 20 17 15 15 16 18 23 25 24 23 21 20 21 20 21 21 21 19 20 22 23 21 23 24 28 24 24 23 20 16 15 12 10 9 10 10 10 9 9 8 7 8 9 11 11 12 13 13 12 12 12 10 10 9 8 9 9 9 11 15 15 18 22 25 24 24 24 22 20 19 18 18 18 18 16 14 nan
28 28 27 27 26 24 22 19 18 16 16 17 17 18 20 24 22 22 20 20 19 19 20 21 19 17 16 19 20 18 18 19 21 20 23 17 19 19 17 14 10 7 7 9 10 9 8 9 8 9 11 12 13 14 15 15 14 14 13 12 11 10 11 10 10 11 13 17 16 17 24 26 26 26 25 24 22 20 20 19 18 18 16 nan nan
26 26 27 28 26 22 20 18 17 17 17 17 17 18 20 21 18 17 15 16 17 18 17 16 16 12 14 15 15 16 18 18 18 21 18 18 18 18 16 13 10 6 5 6 8 8 7 7 8 10 12 14 14 14 14 16 18 17 15 15 12 12 11 10 9 9 14 18 18 20 26 26 27 27 27 25 23 20 21 21 18 19 17 16 17
25 26 27 28 24 21 19 17 17 18 18 19 18 19 20 18 17 16 15 16 15 16 15 15 14 13 11 13 14 14 17 18 17 19 17 18 16 17 15 13 10 7 5 5 5 6 7 8 9 10 12 13 13 14 13 14 14 17 16 14 13 13 13 11 10 9 13 18 20 24 27 27 28 27 27 26 23 21 20 20 19 20 19 17 nan
27 28 28 25 23 20 17 18 19 18 19 20 20 19 19 18 17 17 16 14 13 15 14 15 13 12 12 12 13 15 16 17 19 19 18 15 14 16 14 12 11 10 10 8 7 7 7 7 9 11 10 11 nan 14 14 14 15 14 14 15 14 14 14 14 14 14 15 18 nan 25 26 26 27 27 27 27 25 23 21 20 21 20 20 19 17
27 28 28 26 22 20 19 20 20 19 20 21 20 18 18 18 18 17 16 14 13 15 14 14 14 13 14 15 15 15 15 16 15 14 13 13 13 12 12 11 10 10 11 10 9 7 5 5 6 8 nan nan nan nan 16 16 16 16 16 17 16 15 15 16 16 18 16 19 21 28 27 26 26 28 29 28 28 26 24 22 22 21 21 19 18
28 28 27 25 20 20 20 19 19 20 20 20 18 17 18 18 18 17 15 14 14 15 15 15 17 16 16 16 16 16 14 15 14 13 13 11 11 10 11 11 10 10 9 10 10 9 9 9 8 8 nan nan nan nan nan 16 18 19 19 18 18 16 16 15 16 16 17 21 21 27 26 26 27 28 30 29 29 28 27 24 22 21 22 21 21
27 27 25 22 22 20 19 19 20 21 21 19 19 18 19 18 17 17 17 14 15 16 17 20 19 17 17 16 17 17 15 14 13 10 10 10 10 9 8 10 8 8 9 9 9 8 11 12 11 10 nan nan nan nan nan nan 16 19 20 20 20 20 20 20 18 18 20 22 23 29 28 28 28 26 28 28 28 28 27 25 24 22 22 21 25
22 24 19 19 21 19 19 20 19 21 20 19 20 20 19 19 18 18 19 16 16 18 22 20 19 18 17 16 16 17 16 14 14 13 11 10 10 9 8 7 5 7 8 8 9 12 12 11 10 10 nan 12 nan nan nan nan 13 16 15 17 19 20 19 18 17 16 17 21 22 26 26 26 26 25 26 26 25 25 25 24 23 22 22 22 26
20 15 16 18 19 19 21 21 21 23 21 nan nan 22 21 21 23 22 22 21 24 24 23 21 20 18 17 16 16 17 16 14 13 12 12 11 11 11 9 6 6 6 7 7 6 5 6 8 10 13 14 13 14 11 9 9 9 13 14 14 14 13 13 15 16 17 19 23 23 24 27 27 26 25 25 25 24 23 23 23 22 21 21 21 23
25 17 14 16 20 23 24 24 22 23 nan 23 23 23 24 25 25 26 26 28 27 26 23 22 20 18 16 14 15 16 16 13 13 12 13 12 11 9 9 5 5 6 5 4 4 4 5 5 6 7 8 9 9 10 10 10 11 12 12 13 15 16 16 16 16 17 19 21 23 23 27 27 26 25 24 23 23 22 22 22 21 21 20 19 19
26 21 18 20 24 26 23 19 21 20 23 24 23 25 28 28 27 28 28 30 29 26 24 23 20 17 15 15 15 15 14 16 15 15 12 11 10 11 11 9 8 6 6 5 5 6 6 7 7 7 8 9 9 10 10 10 11 12 13 14 15 17 17 17 18 19 19 21 22 24 25 28 28 26 25 22 21 22 24 22 21 20 19 17 14
29 22 20 24 24 24 21 19 23 25 26 25 25 27 26 25 26 27 29 31 30 22 20 20 20 16 15 15 14 16 15 15 16 15 15 13 10 11 10 9 7 8 7 6 7 7 7 7 8 8 9 10 9 9 10 11 11 11 13 14 16 17 18 18 18 19 19 20 21 23 24 24 25 24 24 24 22 22 24 23 22 20 17 16 15
27 26 20 23 25 23 25 25 nan 25 26 25 25 27 27 29 29 29 28 29 26 23 20 18 19 18 16 15 14 16 14 14 15 16 15 15 13 13 12 12 11 10 11 11 10 9 9 8 8 9 9 10 11 9 10 11 12 12 12 13 14 14 16 18 18 20 21 21 22 24 24 23 22 22 24 23 23 23 24 24 23 20 18 17 16
32 29 24 25 26 28 25 24 25 25 23 23 24 28 29 31 31 30 28 26 25 24 21 17 15 14 16 15 15 13 14 13 15 17 15 15 16 16 14 13 13 13 12 13 12 10 10 11 11 12 12 13 12 12 12 12 14 15 15 16 15 16 17 18 19 19 20 21 24 23 24 25 23 22 21 22 23 24 24 23 23 21 20 19 17
31 28 27 29 31 27 25 25 25 24 23 24 26 27 29 31 31 29 27 27 25 23 21 20 16 14 15 15 15 15 15 15 16 17 17 17 18 16 15 14 16 15 15 15 18 17 16 15 14 14 14 14 14 14 15 14 15 16 16 16 16 16 17 18 19 20 20 21 24 23 23 23 24 22 21 21 20 22 23 22 22 22 20 19 19
29 29 29 29 30 28 26 27 25 25 24 26 26 26 30 31 32 30 27 27 27 26 24 20 17 14 15 12 16 16 15 14 15 16 17 16 18 18 15 13 12 13 14 15 17 15 15 15 14 15 15 15 15 15 16 16 17 17 18 17 17 17 17 17 18 19 21 23 24 23 21 22 23 23 21 21 22 20 20 21 21 20 19 18 17
30 27 28 30 32 31 30 28 26 25 26 26 26 27 29 31 32 31 29 29 27 26 28 25 20 16 16 9 8 10 12 12 13 14 16 15 16 16 16 16 16 16 14 16 17 16 17 18 18 18 19 18 18 18 17 17 18 18 19 19 18 18 18 19 20 21 21 22 22 22 22 21 23 24 23 21 21 21 18 19 19 19 18 18 17
29 28 28 32 33 32 31 28 23 23 25 26 27 28 28 29 30 30 31 32 28 26 27 27 21 15 13 9 3 8 14 14 14 14 16 17 17 17 16 15 16 18 20 21 21 21 22 22 21 21 21 21 20 20 20 19 20 20 20 20 19 19 19 20 21 21 22 22 22 22 22 23 22 22 23 23 21 20 20 17 17 16 16 17 17
30 29 30 32 32 31 30 30 26 23 24 27 29 31 30 29 30 30 31 31 29 28 26 25 20 15 13 3 7 13 13 13 13 14 16 18 18 18 18 16 17 19 21 22 22 22 23 24 24 23 22 22 22 24 22 22 22 23 24 22 22 20 20 21 22 23 22 23 22 22 22 21 22 22 22 23 23 22 20 19 18 16 14 15 16
27 28 30 29 28 28 28 29 28 26 25 27 28 30 30 29 30 29 30 30 28 30 28 24 18 17 14 13 13 13 12 12 13 14 16 18 18 18 17 17 18 20 22 22 22 23 22 nan 24 24 23 22 24 23 23 nan 23 25 nan nan 23 21 21 21 26 28 26 24 22 21 20 19 19 19 21 22 24 23 22 21 19 17 16 14 15
23 28 29 27 26 26 28 29 26 26 26 27 27 29 30 28 27 28 30 29 29 28 27 21 22 21 18 14 13 12 12 13 14 15 16 17 18 18 18 17 18 20 22 23 23 23 24 25 25 26 25 25 24 nan nan nan nan nan nan nan 25 24 26 30 32 29 26 25 25 24 23 21 22 19 20 17 21 22 22 22 21 20 17 16 14
19 25 27 27 26 27 27 25 23 24 26 27 28 28 25 26 29 28 29 25 24 24 25 24 22 18 16 14 14 13 13 13 14 15 16 18 18 18 18 19 20 21 23 24 24 24 24 25 nan nan nan nan nan nan nan nan nan nan nan nan nan nan 29 32 32 28 25 28 27 28 27 26 26 23 23 21 19 20 20 19 19 20 18 17 15
19 22 26 27 27 28 25 22 22 25 27 29 30 30 27 26 27 25 25 21 19 24 26 23 21 19 18 17 16 14 14 14 14 15 17 18 18 19 19 20 21 nan nan nan nan nan nan nan nan nan nan nan nan nan nan nan nan nan nan nan nan nan nan 27 29 25 27 nan 28 30 30 32 29 27 26 25 25 23 23 22 22 21 18 17 16
19 22 24 25 25 24 21 20 22 25 28 29 30 31 31 29 28 26 21 21 23 26 26 25 25 24 21 nan nan nan nan nan nan nan 17 18 19 19 nan nan nan nan nan nan nan nan nan nan nan nan nan nan nan nan nan nan nan nan nan nan nan nan nan nan nan nan nan nan nan 30 32 nan nan 29 29 29 27 27 27 26 24 22 20 19 18
19 20 21 21 21 21 18 18 22 25 27 27 27 29 29 28 26 24 22 25 25 25 25 25 26 nan nan nan nan nan nan nan nan nan nan nan nan nan nan nan nan nan nan nan nan nan nan nan nan nan nan nan nan nan nan nan nan nan nan nan nan nan nan nan nan nan nan nan nan nan nan nan nan nan nan nan 29 29 28 27 25 24 24 24 23
17 18 18 19 18 17 16 18 21 22 23 22 22 23 23 25 24 24 23 22 22 22 25 25 nan nan nan nan nan nan nan nan nan nan nan nan nan nan nan nan nan nan nan nan nan nan nan nan nan nan nan nan nan nan nan nan nan nan nan nan nan nan nan nan nan nan nan nan nan nan nan nan nan nan nan nan nan nan nan nan nan nan nan nan nan
18 19 18 17 15 14 15 18 19 19 19 19 19 20 22 22 22 22 21 20 21 21 23 22 nan nan nan nan nan nan nan nan nan nan nan nan nan nan nan nan nan nan nan nan nan nan nan nan nan nan nan nan nan nan nan nan nan nan nan nan nan nan nan nan nan nan nan nan nan nan nan nan nan nan nan nan nan nan nan nan nan nan nan nan nan
18 19 18 16 16 16 16 18 19 19 17 17 19 20 23 23 23 23 22 20 21 24 24 22 nan nan nan nan nan nan nan nan nan nan nan nan nan nan nan nan nan nan nan nan nan nan nan nan nan nan nan nan nan nan nan nan nan nan nan nan nan nan nan nan nan nan nan nan nan nan nan nan nan nan nan nan nan nan nan nan nan nan nan nan nan
18 18 17 16 17 16 15 16 18 19 17 16 18 19 20 21 22 21 22 21 24 24 nan nan nan nan nan nan nan nan nan nan nan nan nan nan nan nan nan nan nan nan nan nan nan nan nan nan nan nan nan nan nan nan nan nan nan nan nan nan nan nan nan nan nan nan nan nan nan nan nan nan nan nan nan nan nan nan nan nan nan nan nan nan nan
18 17 16 16 15 13 13 15 16 17 18 17 16 17 17 20 21 21 24 23 22 20 18 nan nan nan nan nan nan nan nan nan nan nan nan nan nan nan nan nan nan nan nan nan nan nan nan nan nan nan nan nan nan nan nan nan nan nan nan nan nan nan nan nan nan nan nan nan nan nan nan nan nan nan nan nan nan nan nan nan nan nan nan nan nan
18 17 16 14 12 11 12 14 13 16 18 20 21 21 20 21 21 22 23 nan nan nan nan nan nan nan nan nan nan nan nan nan nan nan nan nan nan nan nan nan nan nan nan nan nan nan nan nan nan nan nan nan nan nan nan nan nan nan nan nan nan nan nan nan nan nan nan nan nan nan nan nan nan nan nan nan nan nan nan nan nan nan nan nan nan
Wind_Direction
332 332 333 333 330 326 325 323 318 316 316 317 318 317 315 313 309 303 302 305 308 313 315 319 325 329 329 330 332 332 331 333 334 329 328 326 321 319 320 318 316 314 313 311 309 311 315 318 320 319 321 321 321 321 325 323 321 321 nan nan 315 318 319 316 313 312 313 315 313 310 308 303 295 287 282 278 282 285 284 283 279 285 293 nan 275
327 329 330 330 327 325 324 323 318 314 314 315 317 317 315 312 307 302 302 307 309 310 315 322 326 328 329 330 332 332 331 333 335 332 329 327 322 318 320 320 319 320 313 310 312 316 320 322 324 324 325 328 329 330 333 334 nan nan nan nan nan 331 327 327 324 321 320 317 312 307 302 299 294 290 285 282 282 284 286 285 282 295 300 280 277
318 323 325 326 323 324 324 322 317 312 313 315 317 317 315 311 306 301 304 306 307 312 316 322 326 328 330 332 331 332 330 332 335 333 329 327 323 319 318 319 321 318 314 311 313 316 321 324 325 326 327 332 336 341 342 nan 343 344 348 nan nan nan 340 335 331 331 328 320 311 304 296 290 290 289 289 286 286 284 285 285 283 282 290 282 279
318 320 322 323 321 322 322 321 317 312 312 314 315 317 315 310 305 303 304 305 308 312 317 323 326 328 330 329 329 331 330 330 334 333 326 325 323 318 319 315 315 314 310 311 314 318 319 324 325 325 329 333 341 347 351 351 351 352 nan 359 355 347 338 337 341 340 333 319 311 312 328 nan 309 292 290 289 287 286 287 287 284 285 283 283 280
315 317 319 320 321 321 320 319 316 312 311 313 315 316 314 310 305 303 304 305 309 314 318 321 325 328 328 326 325 326 326 326 330 329 327 326 325 320 316 317 313 310 308 311 313 316 318 321 325 327 332 336 346 355 358 nan nan nan nan nan 7 3 355 347 346 346 341 324 310 322 nan nan nan 300 296 294 291 292 294 294 293 292 287 286 286
314 313 315 318 320 321 319 318 314 312 311 313 314 316 314 310 305 303 304 305 308 313 316 319 321 325 324 322 321 322 323 324 324 327 327 322 324 320 315 311 308 307 305 308 311 314 317 319 324 331 335 339 347 355 358 nan nan nan nan nan 14 7 5 3 1 356 359 7 6 342 nan nan nan 325 302 297 293 292 292 290 290 294 289 nan 285
310 311 313 316 318 320 319 317 314 312 310 312 314 315 314 310 306 303 304 305 308 311 313 316 319 321 320 319 318 317 319 321 320 320 322 320 320 319 312 310 308 305 306 309 314 315 313 318 322 328 332 335 343 350 352 1 12 nan nan nan nan 19 nan 14 11 15 9 19 7 353 nan nan 340 329 304 302 300 297 295 292 290 291 294 289 284
307 308 312 315 316 319 319 316 314 311 310 311 313 315 314 310 306 302 302 303 307 310 311 313 315 315 315 315 315 314 315 317 317 316 316 313 309 307 305 301 298 299 302 306 307 309 314 318 324 324 328 329 341 347 349 357 6 9 16 22 22 19 34 31 42 35 37 19 9 357 nan 339 335 335 312 309 306 301 297 294 294 291 289 287 286
305 307 310 312 316 319 318 315 312 310 309 310 313 314 313 309 304 301 299 301 305 309 310 311 311 311 310 312 312 311 313 314 314 313 310 307 303 299 301 299 294 293 292 293 303 309 313 316 319 321 325 327 336 347 349 358 1 14 18 31 33 40 49 61 60 63 41 22 16 356 nan 337 340 339 324 314 312 303 301 299 295 293 293 292 290
303 305 308 312 317 318 316 314 311 309 308 308 311 313 311 307 302 297 297 300 304 307 309 308 307 307 308 309 308 309 311 311 312 312 310 307 304 300 300 302 300 296 297 301 306 311 311 307 309 316 322 329 336 351 349 2 15 29 29 33 53 65 63 70 79 54 25 34 359 nan 341 330 343 346 333 325 319 314 309 308 308 302 298 292 288
300 303 306 311 315 315 314 312 309 307 307 307 310 311 309 304 298 295 296 299 302 306 305 305 304 304 306 307 307 308 310 312 313 313 312 311 309 304 297 295 295 293 293 295 300 305 306 302 302 307 319 334 346 355 5 13 23 37 38 46 73 86 85 84 90 32 23 23 343 336 325 322 340 349 331 325 322 319 312 308 303 300 296 290 287
299 302 306 310 313 311 311 310 307 304 304 306 308 308 306 302 296 293 295 297 301 303 302 302 302 302 305 305 306 308 311 312 313 315 315 314 309 305 302 297 297 296 292 292 295 302 302 298 294 303 317 331 349 7 16 25 32 38 38 57 73 78 85 104 57 43 26 9 333 333 328 331 341 339 327 322 321 317 313 309 306 298 293 290 284
298 301 304 307 308 309 307 304 303 301 304 305 306 306 304 298 293 292 293 295 300 300 299 299 299 302 304 305 307 310 313 314 316 316 315 314 311 308 304 300 297 296 295 293 299 304 303 298 297 300 310 329 348 5 20 25 33 36 42 45 57 75 85 109 25 34 11 349 335 326 329 nan 338 327 322 321 318 317 311 310 307 303 297 289 284
297 300 301 304 305 306 303 301 299 301 303 304 305 302 299 295 291 290 292 295 297 297 297 298 299 301 302 305 308 312 316 318 321 319 317 315 312 310 305 301 299 297 299 299 302 305 303 298 297 297 306 325 343 359 10 21 24 32 39 37 41 47 75 36 41 22 20 346 327 323 326 330 329 323 320 317 315 313 306 305 307 303 302 293 nan
298 299 301 303 302 301 303 298 299 301 301 299 298 297 295 291 288 290 293 296 297 297 298 297 299 303 304 307 311 316 319 320 320 320 319 317 315 312 308 306 303 302 302 304 305 308 306 298 295 298 308 330 345 351 4 12 21 36 41 42 36 38 52 17 24 25 326 345 326 322 327 325 326 325 318 314 315 313 308 305 304 302 nan nan nan
296 298 299 299 299 299 296 300 298 298 298 297 296 295 293 290 290 292 292 294 296 297 297 297 302 305 308 310 315 319 322 323 324 325 324 320 318 317 314 309 308 307 306 310 311 311 312 302 298 295 308 332 351 3 358 11 27 38 47 47 46 48 49 29 28 21 329 335 327 318 326 321 327 324 319 317 318 317 309 309 306 301 298 nan nan
293 295 297 298 298 294 293 291 295 298 295 295 296 295 291 290 290 291 291 295 297 299 298 300 305 307 310 314 318 322 325 327 328 327 325 323 321 321 320 315 311 312 312 314 318 316 315 315 306 301 316 330 350 360 11 15 30 44 48 52 57 58 58 51 26 22 334 346 325 325 319 323 326 324 321 319 317 316 315 310 302 304 297 nan nan
292 295 295 296 294 291 286 291 296 293 292 296 297 294 292 291 288 289 291 294 297 298 299 303 306 307 309 314 317 321 327 328 329 328 325 325 325 325 327 324 321 319 322 322 324 329 327 327 317 311 320 338 349 5 7 20 33 43 51 52 55 61 61 58 13 6 348 344 335 331 329 330 327 325 321 319 318 314 310 310 307 303 301 nan nan
291 291 292 292 291 288 286 289 289 289 285 281 280 289 293 290 290 290 291 294 298 301 303 304 305 305 310 315 321 327 330 329 328 328 328 328 328 330 331 335 334 328 327 332 336 nan 345 337 340 325 329 335 352 359 13 21 28 42 51 55 62 66 84 43 15 6 344 348 339 333 335 335 330 327 324 322 321 319 312 312 307 304 302 nan nan
287 287 288 287 287 284 285 286 286 286 281 276 277 279 289 292 291 290 292 296 300 301 302 302 304 309 315 319 324 328 330 329 329 329 331 332 332 336 339 345 353 341 337 339 346 346 349 353 349 346 341 343 352 2 11 20 28 37 46 51 54 66 39 36 21 11 343 346 342 335 339 337 333 328 324 326 325 324 317 314 313 312 307 297 nan
283 286 284 284 280 282 285 281 281 281 275 272 272 275 284 289 286 292 294 296 297 299 298 300 304 310 315 319 321 323 327 329 330 332 335 337 338 339 340 348 355 2 354 346 345 357 4 7 4 360 354 351 355 5 12 20 30 35 40 43 43 31 33 34 33 6 343 340 342 342 340 337 333 330 327 326 327 324 321 319 321 315 314 nan nan
287 284 283 283 281 280 280 279 277 274 269 268 268 271 273 278 274 277 277 287 294 297 295 295 303 297 314 313 317 325 326 331 336 336 335 337 338 340 339 342 350 5 6 3 354 355 7 17 22 14 4 360 360 356 6 19 27 30 30 33 23 21 29 31 31 9 344 335 341 344 342 338 336 334 330 326 327 328 327 326 326 323 314 309 305
287 280 281 284 280 276 277 276 272 270 269 265 266 268 271 272 273 271 274 286 291 292 289 294 288 298 303 307 315 325 325 332 339 338 337 339 337 341 341 341 347 356 10 32 31 18 15 28 30 23 11 2 355 358 6 10 16 30 27 20 13 14 18 19 19 23 345 334 338 346 342 341 338 338 333 330 328 329 329 331 328 327 323 319 nan
276 277 279 276 276 275 275 268 267 267 265 265 266 268 269 272 271 270 275 280 284 287 288 286 289 293 301 301 308 316 317 326 337 335 330 330 337 340 345 351 354 360 8 11 33 47 54 40 30 24 8 355 nan 1 359 5 9 12 11 7 9 10 4 5 4 16 345 337 nan 342 342 341 339 338 335 333 334 333 333 334 331 330 326 330 325
268 269 269 270 273 272 265 264 266 262 261 263 266 269 270 272 272 273 278 282 284 283 283 281 282 284 285 289 292 297 306 310 313 318 323 328 331 336 341 345 350 353 3 355 3 11 15 3 352 5 nan nan nan nan 358 359 1 1 1 359 1 2 359 358 0 5 347 346 339 345 342 340 339 339 337 337 339 340 340 338 335 332 330 329 328
262 263 265 268 268 266 262 261 262 260 263 265 270 272 272 271 274 278 281 279 282 283 283 277 273 276 274 277 283 289 298 304 315 326 328 327 320 325 338 340 346 346 337 345 355 356 0 1 1 11 nan nan nan nan nan 357 351 354 355 354 354 355 354 353 356 349 341 342 342 341 340 341 342 342 341 340 341 343 343 342 340 336 331 331 327
247 249 252 259 261 259 262 260 256 259 261 264 264 267 268 272 274 274 273 275 276 275 273 270 273 273 274 276 279 286 293 303 314 320 326 323 323 331 339 334 352 348 340 340 343 351 352 357 5 13 nan nan nan nan nan nan 359 352 351 350 349 354 354 350 341 344 342 343 339 343 345 344 341 341 340 341 344 344 343 344 343 341 333 333 328
238 243 247 257 261 269 269 261 257 259 263 265 266 267 267 269 272 275 270 274 276 265 263 267 268 267 269 273 278 287 298 310 314 321 331 330 333 339 336 329 354 346 351 357 350 350 356 353 353 2 nan 6 nan nan nan nan 341 343 342 343 346 348 342 338 335 336 335 333 335 344 344 341 340 341 340 343 347 345 342 344 345 342 338 334 331
253 256 258 263 271 274 269 265 260 263 272 nan nan 271 272 268 256 256 261 258 259 261 266 264 264 263 266 273 280 283 289 297 310 320 323 333 336 336 331 342 339 343 355 356 350 350 341 343 343 342 346 349 343 339 327 329 319 318 330 340 341 336 334 336 335 336 334 326 330 339 344 344 343 342 342 345 348 344 343 345 344 343 343 340 335
258 248 259 270 265 258 256 262 264 273 nan 272 274 273 271 266 257 258 258 256 255 259 260 260 261 262 262 270 276 284 288 293 298 311 316 324 332 329 322 343 350 353 360 338 347 341 343 341 342 332 329 330 330 335 326 322 325 330 333 337 334 334 336 338 338 339 333 328 327 331 344 344 343 343 344 346 347 345 346 349 347 349 352 349 337
273 275 259 258 261 262 267 266 275 274 263 255 259 260 256 256 259 259 257 258 249 246 250 254 253 260 265 265 268 275 278 279 288 296 300 314 319 320 324 349 346 349 359 359 2 354 351 346 351 354 346 339 339 338 333 333 333 336 335 334 339 336 337 338 336 335 333 332 326 328 332 341 343 344 345 346 347 348 348 349 353 355 359 356 344
265 265 255 258 262 268 274 269 258 256 257 255 255 255 256 258 261 263 265 266 262 248 235 246 254 252 256 257 262 268 272 273 281 291 303 303 314 304 309 317 322 337 345 358 5 356 350 354 349 347 342 336 335 337 340 336 338 340 339 336 336 335 336 337 333 330 327 329 330 328 326 330 341 344 344 348 352 350 352 355 357 358 359 358 354
257 270 275 273 275 271 261 257 nan 262 263 267 268 268 266 262 257 257 252 251 258 261 240 222 235 243 247 250 255 260 265 273 279 292 297 304 304 299 304 319 325 337 341 352 349 339 333 334 337 333 323 323 325 331 332 333 333 337 333 334 328 331 334 332 331 329 329 328 329 327 329 330 333 341 345 349 353 354 354 357 358 360 3 3 3
259 272 277 272 266 264 272 274 273 272 269 272 270 268 270 268 267 264 261 257 254 256 262 252 222 224 243 247 247 254 261 267 272 279 293 296 290 295 302 310 322 331 339 339 327 328 326 330 335 325 323 319 321 327 325 327 332 330 327 330 327 332 332 331 330 328 326 327 327 326 330 329 333 335 332 341 352 353 356 357 358 0 4 7 6
260 271 270 261 267 276 282 283 279 272 268 266 265 266 269 269 267 267 267 264 256 253 250 258 254 230 213 222 237 242 245 256 267 277 285 292 296 295 302 316 327 329 332 330 326 330 327 325 325 320 320 315 317 319 318 321 323 324 326 325 327 327 327 330 330 327 327 327 327 328 331 330 328 331 331 329 334 347 354 357 357 359 1 3 7
254 259 260 267 274 279 282 288 286 277 271 269 269 272 274 272 269 266 264 262 262 262 256 245 242 244 237 203 210 234 242 250 269 278 281 287 292 297 309 316 319 322 320 317 315 311 312 311 311 311 309 313 314 317 318 319 319 320 319 319 322 323 326 327 327 327 328 326 327 328 330 329 326 327 329 327 327 331 349 355 357 356 355 1 9
257 258 264 269 273 277 284 292 292 283 277 274 272 273 272 270 267 269 268 263 264 268 268 262 245 234 250 230 188 227 249 259 269 278 282 284 285 290 297 307 312 308 304 305 303 301 302 304 306 308 310 316 316 318 314 311 313 314 313 314 316 319 322 325 326 326 322 323 324 325 326 327 325 326 324 325 323 324 335 350 353 356 357 358 2
247 255 264 269 274 280 287 293 291 280 279 279 274 272 271 271 271 271 269 268 269 269 271 265 254 246 239 237 138 234 248 252 258 269 278 279 281 282 284 288 296 296 297 301 303 305 306 307 308 309 309 311 312 310 305 307 309 309 309 309 311 314 319 320 322 319 320 321 320 319 323 322 322 323 320 319 321 321 323 332 346 353 356 355 357
252 260 265 271 276 282 287 291 287 280 278 278 276 273 275 274 272 273 272 273 271 268 269 265 253 240 236 261 256 246 253 257 262 271 280 282 283 285 288 291 298 301 303 305 305 307 308 307 308 308 308 309 309 308 308 311 311 311 308 308 310 314 315 315 316 316 313 310 309 314 311 317 318 319 317 316 317 318 319 319 318 321 328 345 351
256 264 271 277 282 287 289 288 283 280 278 278 277 276 277 279 279 278 272 270 272 267 261 262 259 252 257 254 251 253 256 262 265 270 278 283 287 290 292 295 300 304 305 304 306 307 308 nan 307 307 305 306 307 305 306 nan 313 312 nan nan 310 310 305 303 300 296 292 292 300 300 300 305 309 309 313 311 311 312 315 315 314 317 319 326 344
261 270 277 283 290 294 293 288 281 280 281 281 278 278 278 278 275 275 277 279 277 272 261 249 246 248 256 263 257 259 262 266 269 274 279 285 291 294 296 298 303 306 307 307 309 308 308 310 310 309 304 305 308 nan nan nan nan nan nan nan 311 312 309 300 295 289 288 296 293 291 295 294 295 292 282 290 298 302 307 310 310 309 311 312 317
271 277 283 287 290 292 291 287 276 276 281 282 281 277 275 280 281 278 279 279 274 266 254 241 246 255 261 264 265 266 269 272 277 280 282 284 288 293 297 302 306 307 309 310 308 308 306 306 nan nan nan nan nan nan nan nan nan nan nan nan nan nan 313 305 298 291 290 295 293 291 289 286 278 281 283 283 285 293 295 294 294 295 295 300 307
278 281 286 289 288 287 287 283 276 277 279 281 281 281 276 275 274 275 279 273 257 258 256 253 259 263 262 266 271 271 272 275 279 283 284 285 291 298 303 308 307 nan nan nan nan nan nan nan nan nan nan nan nan nan nan nan nan nan nan nan nan nan nan 300 301 289 295 nan 292 289 286 284 277 278 279 280 276 272 275 275 276 279 286 293 296
277 280 284 289 289 287 284 278 277 276 278 279 279 277 275 270 266 275 272 262 264 259 259 263 265 265 267 nan nan nan nan nan nan nan 288 291 296 301 nan nan nan nan nan nan nan nan nan nan nan nan nan nan nan nan nan nan nan nan nan nan nan nan nan nan nan nan nan nan nan 284 284 nan nan 273 276 274 271 271 269 267 267 274 281 289 293
279 284 288 291 290 288 281 278 277 276 275 277 279 279 274 268 266 262 260 258 256 255 260 266 268 nan nan nan nan nan nan nan nan nan nan nan nan nan nan nan nan nan nan nan nan nan nan nan nan nan nan nan nan nan nan nan nan nan nan nan nan nan nan nan nan nan nan nan nan nan nan nan nan nan nan nan 269 269 267 266 265 266 262 265 274
282 282 283 286 288 287 277 273 276 276 274 272 277 278 276 275 271 267 259 255 255 257 267 274 nan nan nan nan nan nan nan nan nan nan nan nan nan nan nan nan nan nan nan nan nan nan nan nan nan nan nan nan nan nan nan nan nan nan nan nan nan nan nan nan nan nan nan nan nan nan nan nan nan nan nan nan nan nan nan nan nan nan nan nan nan
278 277 278 278 273 274 271 268 274 279 275 269 267 270 267 264 261 255 254 255 258 263 272 274 nan nan nan nan nan nan nan nan nan nan nan nan nan nan nan nan nan nan nan nan nan nan nan nan nan nan nan nan nan nan nan nan nan nan nan nan nan nan nan nan nan nan nan nan nan nan nan nan nan nan nan nan nan nan nan nan nan nan nan nan nan
275 275 272 269 265 264 265 261 262 269 271 270 263 261 265 262 260 256 255 254 265 277 279 277 nan nan nan nan nan nan nan nan nan nan nan nan nan nan nan nan nan nan nan nan nan nan nan nan nan nan nan nan nan nan nan nan nan nan nan nan nan nan nan nan nan nan nan nan nan nan nan nan nan nan nan nan nan nan nan nan nan nan nan nan nan
276 277 269 258 254 252 252 254 260 264 266 266 264 259 260 261 261 261 263 266 274 278 nan nan nan nan nan nan nan nan nan nan nan nan nan nan nan nan nan nan nan nan nan nan nan nan nan nan nan nan nan nan nan nan nan nan nan nan nan nan nan nan nan nan nan nan nan nan nan nan nan nan nan nan nan nan nan nan nan nan nan nan nan nan nan
280 272 254 244 243 247 257 264 263 260 259 257 257 257 258 259 260 267 275 278 279 280 282 nan nan nan nan nan nan nan nan nan nan nan nan nan nan nan nan nan nan nan nan nan nan nan nan nan nan nan nan nan nan nan nan nan nan nan nan nan nan nan nan nan nan nan nan nan nan nan nan nan nan nan nan nan nan nan nan nan nan nan nan nan nan
276 264 245 237 242 255 269 264 256 253 254 253 252 253 255 257 263 270 276 nan nan nan nan nan nan nan nan nan nan nan nan nan nan nan nan nan nan nan nan nan nan nan nan nan nan nan nan nan nan nan nan nan nan nan nan nan nan nan nan nan nan nan nan nan nan nan nan nan nan nan nan nan nan nan nan nan nan nan nan nan nan nan nan nan nan